[[{"header":{"parameterUnit":"m.s-1","parameterCategory":2,"la1":30.2991,"la2":30.254,"lo1":-89.0895,"lo2":-89.0444,"dy":0.0017,"dx":0.0017,"nx":28,"ny":28,"refTime":"2025-09-01T09:00:00:Z","depth":"0","parameterNumber":2,"parameterNumberName":"U-component_of_CURRENTS"},"data":[0,0,0,0,0,0,0,0,0,0,0,0,0,0,0,0,0,0,0,0,0,0,0,0,0,0,0,0,0,0,0,0,0,0,0,0,0,0,0,0,0,0,0,0,0,0,0,0,0,0,0,0,0,0,0,0,0,0,0.1878,0.1878,0,0.1847,0.1847,0.1846,0.1826,0.1826,0.1826,0.1826,0.1805,0.1805,0.1805,0,0,0,0,0,0,0,0,0,0,0,0,0,0.1955,0.1953,0.1878,0.1878,0.1877,0.1847,0.1847,0.1846,0.1826,0.1826,0.1826,0.1825,0.1805,0.1805,0.1805,0,0,0,0,0,0,0,0,0,0,0,0,0,0.1923,0.1953,0.1878,0.1863,0.1862,0.1847,0.1846,0.1846,0.1826,0.1826,0.1826,0.1825,0.1806,0.1805,0.1804,0.1806,0,0,0.1803,0.1802,0,0,0,0,0,0,0,0,0.1924,0.192,0.1866,0.1864,0.1862,0.184,0.1866,0.1833,0.1826,0.184,0.1826,0.1825,0.1818,0.1816,0.1811,0.1805,0.1804,0.1803,0.1802,0.1802,0.1802,0,0,0,0,0,0,0,0.1927,0.1921,0.1866,0.1865,0.1863,0.187,0.1865,0.186,0.1831,0.1839,0.1837,0.1833,0.1817,0.1812,0.1811,0.1804,0.1803,0.1802,0.1802,0.1802,0.1801,0.1801,0,0,0,0,0,0,0.1928,0.1923,0.1867,0.1865,0.1893,0.1869,0.1863,0.1848,0.1831,0.1828,0.1833,0.1832,0.1813,0.1811,0.181,0.1821,0.1802,0.1801,0.1801,0.18,0.1801,0.1801,0,0,0,0,0,0,0.1929,0.1923,0.1868,0.1894,0.1887,0.1867,0.185,0.1847,0.1842,0.1827,0.1824,0.1832,0.1813,0.1811,0.1802,0.182,0.1801,0.1801,0.18,0.18,0.1801,0.1838,0,0,0,0,0,0,0.1932,0.1923,0.1919,0.1893,0.1886,0.1862,0.185,0.1847,0.184,0.1838,0.1824,0.1822,0.1812,0.1803,0.1801,0.1819,0.18,0.18,0.18,0.1801,0.1836,0.1839,0.1842,0,0,0,0,0,0.1934,0.1922,0.1918,0.1912,0.1878,0.1862,0.1859,0.1845,0.184,0.184,0.1826,0.1823,0.1806,0.1802,0.1801,0.1819,0.1799,0.18,0.1801,0.1835,0.1839,0.1842,0,0,0,0,0,0,0.1949,0.1918,0.1914,0.1892,0.1882,0.1859,0.1856,0.1848,0.1837,0.1836,0.1822,0.1818,0.1823,0.1811,0.1807,0.1819,0.1804,0.1805,0.1831,0.1835,0.1838,0.185,0.18,0,0,0,0,0,0.1952,0.1935,0.1914,0.1899,0.1895,0.1878,0.1872,0.1863,0.1848,0.1843,0.1832,0.1824,0.1825,0.182,0.1818,0.1818,0.1829,0.1829,0.1833,0.1835,0.1844,0.1888,0.1897,0.1803,0.1803,0.1803,0,0,0.1954,0.1934,0.1926,0.1902,0.1892,0.1883,0.1874,0.1864,0.186,0.1843,0.1836,0.1837,0.1829,0.1833,0.1834,0.1823,0.1863,0.1836,0.1839,0.1846,0.189,0.1899,0.1908,0.1804,0.1804,0.1804,0,0,0.1945,0.1934,0.1918,0.1911,0.1897,0.189,0.1889,0.1871,0.187,0.1861,0.1858,0.1868,0.1851,0.186,0.186,0.1878,0.1883,0.1875,0.1896,0.1939,0.1948,0.1955,0.1967,0.1975,0.1871,0.1871,0.1871,0,0.1951,0.1922,0.1915,0.19,0.1895,0.1893,0.1883,0.1884,0.1866,0.1875,0.1862,0.1876,0.1868,0.1895,0.1897,0.1888,0.1901,0.1884,0.1945,0.1953,0.1961,0.197,0.1979,0.1873,0.1873,0.1872,0.1872,0,0.1927,0.1912,0.1905,0.1886,0.1886,0.1876,0.1878,0.1884,0.1883,0.1887,0.1914,0.1913,0.1926,0.1927,0.1912,0.1963,0.1951,0.1951,0.194,0.1973,0.198,0.1989,0.1876,0.1875,0.1874,0.1874,0,0,0.1909,0.1891,0.1887,0.1881,0.1877,0.187,0.1883,0.1894,0.1913,0.1918,0.1948,0.1958,0.1977,0.1979,0.1982,0.2009,0.2062,0.1999,0.2,0.2017,0.214,0.2019,0.2017,0.2078,0.208,0.2082,0.2119,0,0.189,0.1861,0.1862,0.185,0.1838,0.1857,0.1872,0.1891,0.191,0.1943,0.1975,0.2003,0.1992,0.2009,0.2041,0.2066,0.2089,0.2051,0.21,0.2101,0.1997,0.2025,0.1888,0.19,0.2127,0.2129,0.213,0,0.1853,0.1843,0.1822,0.1833,0.1833,0.1835,0.187,0.1883,0.1942,0.1965,0.2016,0.2044,0.2101,0.2083,0.2155,0.2133,0.2139,0.2148,0.215,0.2033,0.1997,0.1906,0.1907,0.1816,0.2143,0.2142,0.2141,0,0.1817,0.1811,0.1795,0.1793,0.181,0.182,0.1838,0.1887,0.1918,0.1988,0.2028,0.2098,0.2135,0.2181,0.2199,0.2189,0.2264,0.2255,0.2149,0.214,0.2029,0.2006,0.1954,0.2302,0.2302,0.2302,0.2302,0,0.1773,0.1757,0.1779,0.1764,0.1777,0.1798,0.1825,0.1861,0.193,0.1975,0.2042,0.2089,0.2163,0.2211,0.2227,0.2209,0.2292,0.2157,0.2148,0.2033,0.201,0.1929,0.1908,0.2303,0.2303,0.2302,0.2302,0,0.1706,0.1717,0.1706,0.1735,0.1749,0.1754,0.1812,0.1842,0.1911,0.1976,0.2007,0.2099,0.2147,0.2199,0.2258,0.222,0.2137,0.2199,0.2036,0.2005,0.1784,0.177,0.1659,0.1616,0.2087,0.2085,0.2082,0,0.1653,0.1644,0.1679,0.1691,0.1698,0.1722,0.175,0.1821,0.1857,0.197,0.2,0.2073,0.2101,0.2133,0.2083,0.2075,0.2038,0.1928,0.1874,0.1748,0.1729,0.1673,0.1643,0.1747,0.1742,0.1738,0.1735,0,0.1575,0.1599,0.1603,0.1633,0.1657,0.1685,0.1725,0.1756,0.1843,0.1899,0.1955,0.1989,0.199,0.1893,0.1859,0.1846,0.178,0.1841,0.1777,0.1503,0.1377,0.1337,0.1733,0.17,0.1703,0.1706,0.1708,0.1709,0.1526,0.1522,0.1549,0.1567,0.1603,0.1629,0.1627,0.1679,0.172,0.176,0.1838,0.181,0.1729,0.1641,0.1619,0.1432,0.1502,0.1348,0.1357,0.1323,0.122,0.1507,0.1415,0.1417,0.1419,0.142,0.1421,0,0.146,0.1468,0.1486,0.1506,0.1516,0.1558,0.1596,0.1579,0.1582,0.1604,0.1614,0.1474,0.1339,0.1273,0.1076,0.0966,0.0948,0.0925,0.0842,0.0855,0.1161,0.1082,0.0833,0.0833,0.0833,0.0833,0.0833,0.0833,0.1429,0.1412,0.1418,0.1406,0.1425,0.1407,0.1408,0.1397,0.1387,0.1288,0.1181,0.1152,0.1045,0.0815,0.064,0.0626,0.0578,0.0477,0.0549,0.0774,0.0815,0.0854,0.0773,0.0464,0.0463,0.0177,0.0174,0.0172]},{"header":{"parameterUnit":"m.s-1","parameterCategory":2,"la1":30.2991,"la2":30.254,"lo1":-89.0895,"lo2":-89.0444,"dy":0.0017,"dx":0.0017,"nx":28,"ny":28,"refTime":"2025-09-01T09:00:00:Z","depth":"0","parameterNumber":3,"parameterNumberName":"V-component_of_CURRENTS"},"data":[0,0,0,0,0,0,0,0,0,0,0,0,0,0,0,0,0,0,0,0,0,0,0,0,0,0,0,0,0,0,0,0,0,0,0,0,0,0,0,0,0,0,0,0,0,0,0,0,0,0,0,0,0,0,0,0,0,0,0.0234,0.0234,0,0.0238,0.0238,0.0238,0.0236,0.0236,0.0236,0.0236,0.0228,0.0228,0.0228,0,0,0,0,0,0,0,0,0,0,0,0,0,0.022,0.022,0.0234,0.0234,0.0234,0.0238,0.0238,0.0238,0.0236,0.0236,0.0236,0.0236,0.0228,0.0228,0.0228,0,0,0,0,0,0,0,0,0,0,0,0,0,0.0225,0.022,0.0234,0.0234,0.0234,0.0238,0.0238,0.0238,0.0236,0.0236,0.0236,0.0236,0.0228,0.0228,0.0228,0.0228,0,0,0.0227,0.0227,0,0,0,0,0,0,0,0,0.0225,0.0225,0.0234,0.0234,0.0234,0.0237,0.023,0.0234,0.0236,0.0235,0.0236,0.0236,0.023,0.023,0.023,0.0227,0.0227,0.0227,0.0227,0.0227,0.0227,0,0,0,0,0,0,0,0.0224,0.0225,0.0235,0.0234,0.0234,0.0233,0.0233,0.0231,0.0232,0.0235,0.0235,0.0236,0.023,0.0231,0.023,0.0227,0.0227,0.0227,0.0227,0.0227,0.0228,0.0229,0,0,0,0,0,0,0.0225,0.0225,0.0235,0.0235,0.023,0.0233,0.0234,0.0236,0.0233,0.0232,0.0237,0.0236,0.0231,0.023,0.023,0.024,0.0227,0.0226,0.0226,0.0228,0.0229,0.0229,0,0,0,0,0,0,0.0225,0.0226,0.0235,0.0231,0.0232,0.0233,0.0236,0.0236,0.0238,0.0234,0.0233,0.0238,0.0231,0.023,0.0233,0.024,0.0226,0.0226,0.0228,0.0228,0.0229,0.0254,0,0,0,0,0,0,0.0225,0.0226,0.0228,0.0231,0.0232,0.0241,0.0236,0.0236,0.0239,0.0239,0.0235,0.0234,0.0231,0.0233,0.0233,0.0239,0.0226,0.0228,0.0228,0.0229,0.0253,0.0256,0.0258,0,0,0,0,0,0.0224,0.0228,0.0228,0.0229,0.0234,0.0241,0.0241,0.0242,0.0239,0.0242,0.0241,0.0235,0.0235,0.0233,0.0233,0.0239,0.0228,0.0228,0.0229,0.0252,0.0255,0.0257,0,0,0,0,0,0,0.0221,0.0228,0.0228,0.0233,0.0238,0.0241,0.0243,0.0243,0.0245,0.0244,0.0239,0.0238,0.0242,0.0236,0.0235,0.024,0.023,0.023,0.0248,0.025,0.0253,0.0264,0.0226,0,0,0,0,0,0.0221,0.0227,0.0232,0.0237,0.0239,0.0241,0.0243,0.0245,0.0247,0.0247,0.0246,0.0243,0.0243,0.0244,0.0242,0.0246,0.0244,0.0248,0.025,0.0252,0.026,0.0269,0.0273,0.023,0.023,0.023,0,0,0.0222,0.0226,0.0229,0.0237,0.0239,0.0249,0.0242,0.0248,0.0258,0.0246,0.0256,0.0251,0.0246,0.0252,0.0253,0.0248,0.0261,0.0253,0.0254,0.0262,0.027,0.0274,0.0278,0.0231,0.023,0.023,0,0,0.0229,0.0229,0.0238,0.0243,0.0251,0.0254,0.0257,0.0262,0.0265,0.0273,0.0268,0.0269,0.0266,0.0269,0.0268,0.028,0.0272,0.0275,0.0296,0.0304,0.0308,0.0311,0.0307,0.031,0.0276,0.0276,0.0276,0,0.023,0.0242,0.0241,0.0252,0.026,0.0258,0.0272,0.0275,0.0281,0.029,0.0279,0.0289,0.0277,0.0294,0.0293,0.0286,0.0285,0.0288,0.0308,0.0311,0.0314,0.0309,0.0312,0.0278,0.0277,0.0277,0.0277,0,0.0246,0.0255,0.026,0.0275,0.0283,0.0293,0.03,0.0309,0.031,0.0315,0.0331,0.0321,0.0331,0.0321,0.0307,0.0325,0.0316,0.031,0.0303,0.032,0.0313,0.0316,0.0279,0.0279,0.0279,0.0278,0,0,0.0257,0.027,0.0272,0.0286,0.0297,0.0309,0.0325,0.0345,0.0367,0.0363,0.0395,0.0379,0.0379,0.0378,0.0366,0.0364,0.0371,0.0344,0.0344,0.0345,0.0383,0.0363,0.0364,0.037,0.0371,0.0371,0.0367,0,0.0273,0.0295,0.0299,0.0327,0.0341,0.0347,0.0368,0.0385,0.0395,0.0425,0.0418,0.0439,0.04,0.0411,0.0403,0.0388,0.038,0.0372,0.0363,0.0363,0.0347,0.0367,0.0402,0.04,0.0369,0.037,0.037,0,0.0293,0.0306,0.033,0.0361,0.037,0.0387,0.0428,0.0447,0.0478,0.049,0.0507,0.0508,0.0514,0.0477,0.0458,0.0457,0.042,0.0397,0.0397,0.0374,0.0349,0.038,0.0406,0.0408,0.0374,0.0373,0.0373,0,0.0308,0.0333,0.0355,0.0363,0.0394,0.0413,0.0434,0.0466,0.05,0.0539,0.0573,0.0574,0.0588,0.0554,0.05,0.0485,0.0475,0.0451,0.0397,0.0394,0.042,0.0419,0.0454,0.0433,0.0433,0.0433,0.0433,0,0.0327,0.0346,0.0364,0.0377,0.042,0.0433,0.0487,0.0509,0.0559,0.0615,0.0611,0.0656,0.0607,0.0596,0.0535,0.048,0.0504,0.0408,0.0398,0.0428,0.0428,0.0427,0.0411,0.0432,0.0432,0.0432,0.0432,0,0.0341,0.0348,0.0379,0.0411,0.0427,0.0459,0.0524,0.0568,0.0605,0.0683,0.0704,0.0724,0.0712,0.0655,0.06,0.0528,0.0471,0.0443,0.0474,0.0467,0.0408,0.0391,0.0397,0.0384,0.0389,0.0388,0.0388,0,0.0349,0.0364,0.0404,0.0432,0.0448,0.0499,0.0542,0.0588,0.0642,0.0729,0.0774,0.0787,0.0815,0.0726,0.0615,0.052,0.0478,0.0455,0.0426,0.0419,0.0394,0.0384,0.0371,0.0468,0.0468,0.0469,0.0469,0,0.037,0.0382,0.0408,0.046,0.0505,0.0563,0.0626,0.0676,0.0746,0.0819,0.0901,0.0932,0.0863,0.0795,0.0649,0.0569,0.0469,0.0455,0.0457,0.0467,0.0453,0.0431,0.0444,0.0471,0.0471,0.0471,0.0471,0.0471,0.0389,0.041,0.0443,0.0495,0.0549,0.0617,0.0669,0.075,0.0844,0.0951,0.0977,0.103,0.0942,0.0762,0.0668,0.0513,0.0482,0.0459,0.044,0.0432,0.042,0.0426,0.0433,0.0432,0.0432,0.0431,0.0431,0,0.0409,0.0432,0.048,0.054,0.0597,0.0623,0.0721,0.078,0.0892,0.0991,0.1066,0.1053,0.0965,0.0826,0.0636,0.0536,0.0491,0.0474,0.0492,0.0478,0.0504,0.051,0.0526,0.0526,0.0526,0.0526,0.0526,0.0525,0.0421,0.0457,0.0476,0.0562,0.061,0.0685,0.0738,0.0835,0.0916,0.102,0.1051,0.1066,0.0991,0.0787,0.0633,0.0572,0.052,0.0491,0.0444,0.0493,0.0491,0.0489,0.0494,0.0505,0.0505,0.0452,0.0452,0.0451]}],[{"header":{"parameterUnit":"m.s-1","parameterCategory":2,"la1":30.2991,"la2":30.254,"lo1":-89.0895,"lo2":-89.0444,"dy":0.0017,"dx":0.0017,"nx":28,"ny":28,"refTime":"2025-09-01T09:00:00:Z","depth":"2","parameterNumber":2,"parameterNumberName":"U-component_of_CURRENTS"},"data":[0,0,0,0,0,0,0,0,0,0,0,0,0,0,0,0,0,0,0,0,0,0,0,0,0,0,0,0,0,0,0,0,0,0,0,0,0,0,0,0,0,0,0,0,0,0,0,0,0,0,0,0,0,0,0,0,0,0,0.1642,0.1642,0,0.1622,0.1622,0.1621,0.1627,0.1628,0.1629,0.1629,0.1626,0.1625,0.1624,0,0,0,0,0,0,0,0,0,0,0,0,0,0.1645,0.1645,0.1643,0.1642,0.1642,0.1622,0.1622,0.1621,0.1627,0.1628,0.1629,0.1629,0.1626,0.1625,0.1624,0,0,0,0,0,0,0,0,0,0,0,0,0,0.1635,0.1645,0.1643,0.1644,0.1644,0.1622,0.1622,0.1621,0.1627,0.1628,0.1629,0.163,0.1626,0.1625,0.1624,0.1603,0,0,0.1622,0.1621,0,0,0,0,0,0,0,0,0.1636,0.1635,0.1644,0.1644,0.1644,0.1629,0.1621,0.1616,0.1627,0.1632,0.1629,0.163,0.1629,0.1628,0.162,0.1602,0.1602,0.1621,0.1621,0.1621,0.162,0,0,0,0,0,0,0,0.1636,0.1635,0.1633,0.1644,0.1643,0.1631,0.1631,0.162,0.1625,0.1632,0.1632,0.1632,0.1629,0.1621,0.162,0.1602,0.1622,0.1621,0.162,0.162,0.1629,0.163,0,0,0,0,0,0,0.1643,0.1636,0.1634,0.1633,0.1643,0.1631,0.163,0.1632,0.1625,0.1625,0.1631,0.1632,0.1622,0.1621,0.162,0.1648,0.1621,0.162,0.1619,0.1628,0.1629,0.163,0,0,0,0,0,0,0.1643,0.1643,0.1635,0.1635,0.1633,0.163,0.1632,0.1631,0.1639,0.1625,0.1625,0.1641,0.1622,0.1621,0.1631,0.1646,0.1619,0.1619,0.1627,0.1629,0.163,0.167,0,0,0,0,0,0,0.1643,0.1643,0.1648,0.1635,0.1634,0.1636,0.1631,0.163,0.1637,0.1638,0.1633,0.1633,0.1623,0.1633,0.163,0.1645,0.1618,0.1626,0.1628,0.1629,0.1668,0.1673,0.1677,0,0,0,0,0,0.1643,0.1644,0.1648,0.1648,0.164,0.1637,0.1635,0.1634,0.1637,0.1643,0.1645,0.1634,0.164,0.1632,0.1629,0.1644,0.1626,0.1628,0.1629,0.1666,0.1672,0.1677,0,0,0,0,0,0,0.1647,0.1644,0.1649,0.1649,0.1651,0.1639,0.1639,0.1641,0.1645,0.1649,0.164,0.164,0.1655,0.1644,0.1635,0.1652,0.1632,0.1634,0.1661,0.1667,0.1671,0.1668,0.1617,0,0,0,0,0,0.1651,0.1653,0.165,0.1654,0.1654,0.165,0.165,0.1651,0.1651,0.1653,0.1651,0.1651,0.1655,0.1658,0.1655,0.166,0.1662,0.1669,0.1674,0.1677,0.1674,0.1715,0.1723,0.1636,0.1636,0.1636,0,0,0.1654,0.1652,0.1654,0.1655,0.1654,0.1654,0.1652,0.1655,0.1663,0.1652,0.1663,0.1665,0.1661,0.1672,0.1677,0.1667,0.1701,0.168,0.1683,0.1677,0.1718,0.1726,0.1734,0.1637,0.1637,0.1637,0,0,0.1656,0.1661,0.1662,0.1663,0.1666,0.1664,0.167,0.1668,0.1677,0.1683,0.1686,0.1704,0.1694,0.1706,0.1708,0.1735,0.1724,0.173,0.1749,0.1789,0.1797,0.1804,0.1807,0.1813,0.1732,0.1732,0.1732,0,0.166,0.166,0.1663,0.1663,0.1665,0.1671,0.1673,0.1681,0.1685,0.1697,0.1694,0.171,0.1713,0.1738,0.1749,0.1746,0.1751,0.1729,0.1796,0.1803,0.1809,0.1811,0.1817,0.1734,0.1734,0.1734,0.1734,0,0.1661,0.1663,0.1663,0.1667,0.1672,0.1674,0.1685,0.1699,0.1707,0.1715,0.1744,0.1752,0.1766,0.1771,0.1764,0.181,0.1792,0.1799,0.1783,0.182,0.1819,0.1826,0.1737,0.1737,0.1736,0.1735,0,0,0.1657,0.1662,0.1663,0.1663,0.1674,0.1674,0.1697,0.1714,0.1732,0.1748,0.1777,0.1794,0.1808,0.1811,0.1818,0.1846,0.1896,0.1838,0.1839,0.1842,0.1959,0.1869,0.1867,0.1917,0.1919,0.192,0.1937,0,0.1655,0.1654,0.1662,0.1664,0.1661,0.168,0.1697,0.1719,0.1741,0.1773,0.1804,0.1832,0.1822,0.184,0.1869,0.1893,0.1916,0.1888,0.1921,0.1922,0.1839,0.1873,0.1702,0.1696,0.1943,0.1944,0.1945,0,0.1645,0.1646,0.1647,0.1656,0.1659,0.1667,0.1697,0.1719,0.177,0.1791,0.1832,0.1858,0.1908,0.19,0.1954,0.1936,0.1949,0.1959,0.1961,0.1865,0.1844,0.1701,0.1698,0.1955,0.1954,0.1954,0.1953,0,0.1623,0.1631,0.1631,0.1634,0.165,0.1662,0.1682,0.1723,0.1753,0.1818,0.1848,0.19,0.194,0.1972,0.1995,0.1984,0.2045,0.2039,0.1964,0.1957,0.181,0.1786,0.2082,0.2082,0.2082,0.2081,0.2081,0,0.1602,0.1599,0.1621,0.1617,0.1629,0.165,0.1676,0.1708,0.1766,0.18,0.1864,0.1896,0.1964,0.2005,0.2014,0.2001,0.2068,0.1965,0.1962,0.1816,0.1794,0.2018,0.2011,0.2082,0.2082,0.2082,0.2082,0,0.1563,0.158,0.1578,0.1602,0.1614,0.1624,0.1674,0.1694,0.1755,0.1809,0.1838,0.1915,0.195,0.1995,0.2046,0.2017,0.2024,0.2005,0.1807,0.1779,0.1897,0.1892,0.1913,0.191,0.1908,0.1906,0.1904,0,0.1536,0.1533,0.1563,0.1571,0.1581,0.1606,0.1623,0.1684,0.1708,0.1802,0.1822,0.1891,0.1895,0.1926,0.1897,0.1884,0.1968,0.1724,0.1671,0.1888,0.1884,0.1882,0.188,0.1491,0.1486,0.1482,0.1479,0,0.1485,0.1504,0.151,0.153,0.1549,0.1568,0.16,0.1612,0.1683,0.1713,0.1743,0.1759,0.1777,0.167,0.1665,0.1645,0.1709,0.1638,0.1943,0.1555,0.149,0.1486,0.1498,0.1442,0.1446,0.1449,0.1451,0.1452,0.1452,0.1448,0.1468,0.1478,0.1503,0.151,0.1495,0.1523,0.1534,0.1538,0.1603,0.1553,0.1553,0.1427,0.1376,0.1344,0.1472,0.1406,0.1419,0.1437,0.1379,0.1314,0.122,0.1223,0.1225,0.1226,0.1228,0,0.1398,0.1403,0.1412,0.1421,0.1416,0.1457,0.1459,0.1415,0.1376,0.1382,0.1363,0.1211,0.1113,0.1131,0.1002,0.0989,0.0994,0.096,0.0951,0.0987,0.1019,0.0941,0.0666,0.0664,0.0663,0.0661,0,0,0.1373,0.1355,0.1355,0.1326,0.1334,0.1298,0.1277,0.1218,0.1188,0.1094,0.1032,0.1063,0.1085,0.0861,0.0822,0.0719,0.0856,0.069,0.114,0.1166,0.1196,0.1272,0.1192,0,0,0,0,0]},{"header":{"parameterUnit":"m.s-1","parameterCategory":2,"la1":30.2991,"la2":30.254,"lo1":-89.0895,"lo2":-89.0444,"dy":0.0017,"dx":0.0017,"nx":28,"ny":28,"refTime":"2025-09-01T09:00:00:Z","depth":"2","parameterNumber":3,"parameterNumberName":"V-component_of_CURRENTS"},"data":[0,0,0,0,0,0,0,0,0,0,0,0,0,0,0,0,0,0,0,0,0,0,0,0,0,0,0,0,0,0,0,0,0,0,0,0,0,0,0,0,0,0,0,0,0,0,0,0,0,0,0,0,0,0,0,0,0,0,0.0135,0.0135,0,0.014,0.014,0.0139,0.014,0.014,0.014,0.014,0.0134,0.0134,0.0134,0,0,0,0,0,0,0,0,0,0,0,0,0,0.011,0.011,0.0135,0.0135,0.0135,0.014,0.014,0.0139,0.014,0.014,0.014,0.014,0.0135,0.0134,0.0134,0,0,0,0,0,0,0,0,0,0,0,0,0,0.0117,0.0111,0.0135,0.0137,0.0137,0.014,0.014,0.0139,0.014,0.014,0.014,0.014,0.0135,0.0134,0.0134,0.0131,0,0,0.0133,0.0133,0,0,0,0,0,0,0,0,0.0117,0.0118,0.0136,0.0137,0.0137,0.014,0.0129,0.0136,0.014,0.0138,0.014,0.014,0.0136,0.0136,0.0135,0.013,0.013,0.0133,0.0133,0.0133,0.0133,0,0,0,0,0,0,0,0.0116,0.0118,0.0136,0.0137,0.0137,0.0132,0.0133,0.013,0.0135,0.0138,0.0138,0.014,0.0136,0.0135,0.0135,0.013,0.0133,0.0133,0.0133,0.0133,0.0135,0.0135,0,0,0,0,0,0,0.0119,0.0118,0.0136,0.0136,0.0128,0.0132,0.0134,0.0138,0.0136,0.0136,0.014,0.0141,0.0136,0.0135,0.0135,0.0147,0.0133,0.0133,0.0132,0.0134,0.0135,0.0135,0,0,0,0,0,0,0.0118,0.012,0.0135,0.0127,0.0129,0.0133,0.0138,0.0138,0.014,0.0138,0.0138,0.0142,0.0136,0.0135,0.0139,0.0146,0.0132,0.0132,0.0134,0.0135,0.0135,0.0161,0,0,0,0,0,0,0.0118,0.012,0.0123,0.0128,0.013,0.0141,0.0138,0.0138,0.0141,0.0142,0.0139,0.0139,0.0136,0.0139,0.0138,0.0145,0.0132,0.0134,0.0134,0.0135,0.016,0.0162,0.0164,0,0,0,0,0,0.0117,0.0123,0.0123,0.0125,0.0134,0.0141,0.0141,0.0143,0.0142,0.0144,0.0145,0.0139,0.0141,0.0139,0.0138,0.0145,0.0134,0.0134,0.0135,0.0159,0.0162,0.0164,0,0,0,0,0,0,0.0114,0.0124,0.0124,0.0133,0.0138,0.0141,0.0144,0.0144,0.0146,0.0147,0.0143,0.0142,0.0148,0.0142,0.014,0.0147,0.0136,0.0136,0.0155,0.0157,0.0159,0.0166,0.0132,0,0,0,0,0,0.0115,0.0123,0.0129,0.0136,0.0138,0.014,0.0143,0.0145,0.0148,0.0149,0.0148,0.0147,0.0148,0.0149,0.0148,0.0152,0.0147,0.0155,0.0157,0.0159,0.0164,0.0167,0.017,0.0137,0.0137,0.0137,0,0,0.0116,0.0123,0.0127,0.0136,0.0139,0.0148,0.0142,0.0149,0.0159,0.0148,0.0159,0.0154,0.0151,0.0158,0.0159,0.0154,0.0165,0.016,0.0162,0.0165,0.0168,0.0171,0.0174,0.0137,0.0137,0.0137,0,0,0.0125,0.0128,0.0137,0.0143,0.015,0.0154,0.0156,0.0162,0.0165,0.0173,0.017,0.0172,0.0171,0.0174,0.0174,0.0187,0.0176,0.0183,0.0201,0.0204,0.0207,0.021,0.0202,0.0203,0.0185,0.0185,0.0185,0,0.0126,0.014,0.014,0.0152,0.016,0.0158,0.0171,0.0175,0.0182,0.019,0.018,0.0188,0.0181,0.0197,0.0198,0.0193,0.0188,0.0192,0.0208,0.021,0.0213,0.0204,0.0205,0.0186,0.0186,0.0186,0.0186,0,0.0143,0.0153,0.016,0.0175,0.0183,0.0194,0.0201,0.021,0.0211,0.0216,0.0228,0.022,0.0227,0.0221,0.0212,0.0226,0.0215,0.021,0.0203,0.0218,0.0207,0.0208,0.0188,0.0188,0.0187,0.0187,0,0,0.0155,0.0169,0.0173,0.0185,0.0198,0.0209,0.0226,0.0244,0.0263,0.026,0.0285,0.0275,0.027,0.027,0.026,0.0256,0.0259,0.0239,0.0239,0.0234,0.0259,0.0256,0.0256,0.0258,0.0259,0.0259,0.0244,0,0.0171,0.0194,0.0199,0.0227,0.024,0.0247,0.0267,0.0282,0.0291,0.0313,0.0307,0.0323,0.029,0.0297,0.0288,0.0273,0.0265,0.0264,0.0243,0.0243,0.024,0.0259,0.0274,0.0263,0.0245,0.0245,0.0245,0,0.0192,0.0205,0.0229,0.0258,0.0266,0.0283,0.0319,0.0337,0.0362,0.037,0.0379,0.0376,0.0378,0.0348,0.0323,0.0324,0.0293,0.0272,0.0271,0.0261,0.0242,0.0246,0.0265,0.0246,0.0246,0.0246,0.0246,0,0.0206,0.0232,0.0252,0.0261,0.0288,0.0307,0.0328,0.0355,0.0384,0.0412,0.0438,0.0429,0.0439,0.0401,0.0355,0.0341,0.0325,0.0303,0.0268,0.0267,0.0273,0.0272,0.0284,0.0284,0.0284,0.0284,0.0284,0,0.0226,0.0246,0.0261,0.0274,0.0312,0.0325,0.0372,0.0392,0.0432,0.0481,0.047,0.0504,0.0453,0.0439,0.0381,0.0334,0.0346,0.0277,0.0268,0.0282,0.0282,0.0262,0.026,0.0284,0.0284,0.0284,0.0284,0,0.0241,0.0247,0.0277,0.0305,0.0319,0.0349,0.0407,0.0445,0.0474,0.0541,0.0557,0.0567,0.0552,0.0495,0.044,0.0377,0.0326,0.0303,0.0317,0.031,0.0254,0.0253,0.026,0.026,0.026,0.026,0.026,0,0.0251,0.0264,0.03,0.0324,0.0339,0.0385,0.0423,0.0464,0.0511,0.0583,0.0623,0.063,0.0646,0.056,0.0466,0.0376,0.0346,0.0309,0.0284,0.0263,0.0254,0.0253,0.0252,0.0297,0.0297,0.0297,0.0297,0,0.0272,0.0282,0.0306,0.0351,0.0392,0.0444,0.0502,0.0546,0.0608,0.0665,0.0732,0.075,0.069,0.0615,0.049,0.0418,0.0324,0.0309,0.03,0.0301,0.0297,0.0288,0.0286,0.0299,0.0299,0.0299,0.0299,0.0299,0.0291,0.0311,0.034,0.0386,0.0434,0.0497,0.0545,0.0615,0.0695,0.0776,0.0794,0.0812,0.0738,0.0582,0.0478,0.035,0.0354,0.0287,0.0287,0.0286,0.0294,0.029,0.0292,0.0292,0.0292,0.0291,0.0291,0,0.0313,0.0333,0.0375,0.0429,0.0481,0.0505,0.0594,0.0643,0.0737,0.08,0.085,0.0767,0.0701,0.0594,0.0428,0.0329,0.0308,0.027,0.0278,0.0278,0.0277,0.0284,0.0279,0.0279,0.0278,0.0278,0,0,0.0325,0.0358,0.0375,0.0453,0.0496,0.0569,0.0619,0.0693,0.0749,0.0801,0.0808,0.0828,0.0729,0.0597,0.0482,0.0382,0.0337,0.0345,0.0369,0.0393,0.0393,0.0307,0.0321,0,0,0,0,0]}],[{"header":{"parameterUnit":"m.s-1","parameterCategory":2,"la1":30.2991,"la2":30.254,"lo1":-89.0895,"lo2":-89.0444,"dy":0.0017,"dx":0.0017,"nx":28,"ny":28,"refTime":"2025-09-01T09:00:00:Z","depth":"4","parameterNumber":2,"parameterNumberName":"U-component_of_CURRENTS"},"data":[0,0,0,0,0,0,0,0,0,0,0,0,0,0,0,0,0,0,0,0,0,0,0,0,0,0,0,0,0,0,0,0,0,0,0,0,0,0,0,0,0,0,0,0,0,0,0,0,0,0,0,0,0,0,0,0,0,0,0.0889,0.0889,0,0.0903,0.0903,0.0903,0.0927,0.0927,0.0928,0.0929,0.0953,0.0953,0.0953,0,0,0,0,0,0,0,0,0,0,0,0,0,0.0869,0.0869,0.0889,0.0889,0.089,0.0903,0.0903,0.0903,0.0927,0.0927,0.0928,0.0929,0.0953,0.0953,0.0953,0,0,0,0,0,0,0,0,0,0,0,0,0,0.0878,0.0869,0.0889,0.0905,0.0907,0.0903,0.0903,0.0903,0.0926,0.0927,0.0928,0.0929,0.0953,0.0953,0.0953,0.0934,0,0,0.0953,0.0953,0,0,0,0,0,0,0,0,0.0877,0.0878,0.0902,0.0904,0.0906,0.0916,0.0905,0.0914,0.0926,0.0916,0.0929,0.093,0.0942,0.0943,0.094,0.0935,0.0936,0.0953,0.0953,0.0953,0.0953,0,0,0,0,0,0,0,0.0877,0.0878,0.0892,0.0902,0.0905,0.0907,0.0909,0.0906,0.0922,0.0917,0.092,0.0925,0.0943,0.094,0.0941,0.0936,0.0953,0.0953,0.0953,0.0953,0.0999,0.1,0,0,0,0,0,0,0.0879,0.0877,0.0892,0.0893,0.0896,0.0906,0.0909,0.091,0.0922,0.0925,0.0924,0.0926,0.094,0.0941,0.0942,0.0987,0.0953,0.0953,0.0953,0.0998,0.0999,0.1,0,0,0,0,0,0,0.0878,0.088,0.0891,0.0887,0.0889,0.0906,0.0907,0.091,0.0929,0.0927,0.093,0.0944,0.094,0.0942,0.0965,0.0986,0.0953,0.0953,0.0996,0.0998,0.1,0.1034,0,0,0,0,0,0,0.0878,0.0879,0.089,0.0887,0.089,0.0903,0.0906,0.0909,0.0931,0.0934,0.0945,0.0947,0.0941,0.0965,0.0965,0.0985,0.0954,0.0995,0.0997,0.0999,0.1031,0.1037,0.1041,0,0,0,0,0,0.0877,0.0883,0.089,0.0893,0.09,0.0904,0.0906,0.0919,0.0931,0.094,0.0955,0.0948,0.0979,0.0966,0.0966,0.0986,0.0994,0.0996,0.0999,0.1029,0.1036,0.1041,0,0,0,0,0,0,0.0878,0.0886,0.0894,0.0903,0.0911,0.091,0.0923,0.093,0.0947,0.0959,0.0957,0.096,0.0989,0.0984,0.0969,0.1008,0.0987,0.099,0.1011,0.1017,0.1022,0.1015,0.0954,0,0,0,0,0,0.0883,0.0895,0.0899,0.091,0.0915,0.0923,0.0931,0.0941,0.0951,0.096,0.097,0.0984,0.0994,0.1004,0.1011,0.1027,0.1028,0.1043,0.1048,0.1052,0.1048,0.1077,0.1084,0.1009,0.1009,0.1009,0,0,0.0887,0.0895,0.0902,0.0912,0.092,0.0928,0.093,0.0949,0.0962,0.0959,0.0989,0.1001,0.1003,0.1026,0.1039,0.1028,0.1075,0.1055,0.1059,0.1053,0.108,0.1087,0.1094,0.1011,0.101,0.101,0,0,0.0896,0.0908,0.092,0.0927,0.0946,0.0948,0.0959,0.0972,0.0987,0.1011,0.1018,0.1043,0.1058,0.1065,0.1068,0.1103,0.1101,0.1114,0.1132,0.1161,0.1167,0.1172,0.1186,0.1192,0.1116,0.1116,0.1116,0,0.0904,0.0913,0.0924,0.0934,0.0943,0.096,0.0969,0.0982,0.1005,0.1019,0.103,0.1068,0.1073,0.1094,0.1112,0.1113,0.1127,0.1108,0.1166,0.1172,0.1177,0.119,0.1196,0.1118,0.1118,0.1118,0.1118,0,0.0912,0.0926,0.0934,0.0951,0.0963,0.0976,0.0991,0.1014,0.1038,0.105,0.109,0.1104,0.1126,0.1137,0.1134,0.1174,0.1173,0.117,0.1149,0.1186,0.1198,0.1204,0.1121,0.112,0.112,0.1119,0,0,0.091,0.0934,0.094,0.0948,0.0974,0.0979,0.1008,0.1029,0.1051,0.1086,0.1115,0.1143,0.1162,0.1167,0.1176,0.1201,0.125,0.1205,0.1206,0.1214,0.1312,0.1216,0.1213,0.1265,0.1266,0.1267,0.1307,0,0.0914,0.0932,0.0946,0.0965,0.0971,0.0995,0.1014,0.1041,0.1073,0.1107,0.1134,0.1168,0.1169,0.1194,0.1219,0.1241,0.1268,0.1239,0.1278,0.1279,0.1185,0.1217,0.1271,0.1311,0.1313,0.1314,0.1315,0,0.0917,0.0927,0.0946,0.0966,0.0973,0.0991,0.1029,0.105,0.1097,0.1126,0.1167,0.1192,0.1233,0.1235,0.1288,0.1275,0.1299,0.1314,0.1315,0.1214,0.1193,0.1266,0.1325,0.1325,0.1324,0.1323,0.1322,0,0.0903,0.0927,0.0942,0.0949,0.0976,0.0997,0.1019,0.1063,0.1084,0.115,0.1178,0.1225,0.1258,0.1296,0.1326,0.1321,0.1381,0.1374,0.1308,0.1302,0.1361,0.1355,0.1419,0.1419,0.1419,0.1419,0.1419,0,0.0893,0.0908,0.0941,0.0947,0.0965,0.0994,0.1028,0.1059,0.1108,0.113,0.1193,0.1214,0.1281,0.1317,0.1341,0.1334,0.1395,0.131,0.1306,0.1375,0.137,0.1365,0.1359,0.1421,0.142,0.142,0.142,0,0.0878,0.09,0.0916,0.0948,0.096,0.0978,0.1024,0.1039,0.1102,0.1137,0.1161,0.1222,0.1266,0.1316,0.1375,0.134,0.1354,0.1342,0.141,0.1409,0.1253,0.1248,0.1263,0.126,0.1258,0.1255,0.1254,0,0.0869,0.0878,0.0913,0.0914,0.0933,0.0964,0.0975,0.1033,0.1046,0.1122,0.1123,0.1195,0.123,0.1227,0.129,0.1323,0.1316,0.1307,0.1276,0.1243,0.1238,0.1237,0.1235,0.1249,0.1249,0.1248,0.1247,0,0.0846,0.0872,0.0882,0.0885,0.0898,0.0901,0.0927,0.0929,0.0988,0.1058,0.1061,0.1086,0.1129,0.1164,0.1202,0.1224,0.1298,0.128,0.1285,0.1256,0.1226,0.1224,0.1225,0.1238,0.124,0.1241,0.1241,0,0.0833,0.0834,0.0848,0.0841,0.085,0.0824,0.0846,0.0849,0.0871,0.0954,0.0952,0.1033,0.1105,0.1113,0.1146,0.1159,0.1145,0.1102,0.1116,0.1127,0.1065,0.1006,0.0946,0,0,0,0,0,0.0811,0.08,0.0792,0.0769,0.0771,0.0775,0.0798,0.082,0.0884,0.0857,0.09,0.0937,0.0974,0.1014,0.1005,0.1098,0.1157,0.1081,0.1116,0.1189,0.1199,0.1139,0,0,0,0,0,0,0.0791,0.0794,0.0778,0.0709,0.068,0.0669,0.0685,0.0722,0.0708,0.0785,0.0812,0.0876,0.0933,0.0978,0.0988,0.1003,0.1002,0.1138,0.1135,0.1183,0.1192,0.12,0.1142,0,0,0,0,0]},{"header":{"parameterUnit":"m.s-1","parameterCategory":2,"la1":30.2991,"la2":30.254,"lo1":-89.0895,"lo2":-89.0444,"dy":0.0017,"dx":0.0017,"nx":28,"ny":28,"refTime":"2025-09-01T09:00:00:Z","depth":"4","parameterNumber":3,"parameterNumberName":"V-component_of_CURRENTS"},"data":[0,0,0,0,0,0,0,0,0,0,0,0,0,0,0,0,0,0,0,0,0,0,0,0,0,0,0,0,0,0,0,0,0,0,0,0,0,0,0,0,0,0,0,0,0,0,0,0,0,0,0,0,0,0,0,0,0,0,0.0122,0.0123,0,0.0127,0.0127,0.0127,0.013,0.013,0.013,0.013,0.0132,0.0132,0.0132,0,0,0,0,0,0,0,0,0,0,0,0,0,0.0106,0.0106,0.0122,0.0123,0.0123,0.0127,0.0127,0.0127,0.013,0.013,0.013,0.013,0.0132,0.0132,0.0132,0,0,0,0,0,0,0,0,0,0,0,0,0,0.0112,0.0106,0.0122,0.0125,0.0125,0.0127,0.0127,0.0127,0.0129,0.013,0.013,0.013,0.0132,0.0132,0.0132,0.0131,0,0,0.0132,0.0132,0,0,0,0,0,0,0,0,0.0111,0.0112,0.0124,0.0124,0.0125,0.0128,0.0122,0.0128,0.0129,0.0127,0.013,0.013,0.013,0.0131,0.0131,0.0131,0.0132,0.0132,0.0132,0.0132,0.0132,0,0,0,0,0,0,0,0.0111,0.0112,0.0124,0.0124,0.0125,0.0122,0.0123,0.0123,0.0128,0.0128,0.0128,0.0129,0.0131,0.0131,0.0131,0.0132,0.0132,0.0132,0.0132,0.0132,0.0139,0.0139,0,0,0,0,0,0,0.0112,0.0112,0.0124,0.0124,0.0118,0.0122,0.0123,0.0127,0.0128,0.0129,0.0129,0.0129,0.0131,0.0131,0.0131,0.0145,0.0132,0.0132,0.0132,0.0139,0.0139,0.0139,0,0,0,0,0,0,0.0111,0.0113,0.0124,0.0118,0.0119,0.0123,0.0126,0.0127,0.013,0.0129,0.013,0.0132,0.0131,0.0131,0.0137,0.0145,0.0132,0.0132,0.0139,0.0139,0.0139,0.0164,0,0,0,0,0,0,0.0111,0.0113,0.0116,0.0118,0.012,0.0128,0.0126,0.0127,0.013,0.013,0.0132,0.0132,0.0131,0.0137,0.0137,0.0145,0.0132,0.0139,0.0139,0.0139,0.0163,0.0165,0.0167,0,0,0,0,0,0.011,0.0115,0.0116,0.0117,0.0124,0.0128,0.0129,0.0131,0.013,0.0133,0.0135,0.0132,0.0138,0.0137,0.0137,0.0145,0.0138,0.0139,0.0139,0.0162,0.0165,0.0167,0,0,0,0,0,0,0.011,0.0116,0.0117,0.0124,0.0127,0.0129,0.0132,0.0132,0.0136,0.0137,0.0136,0.0136,0.0144,0.0139,0.0137,0.0147,0.0137,0.0137,0.0155,0.0157,0.0159,0.0163,0.0132,0,0,0,0,0,0.0111,0.0117,0.0121,0.0126,0.0128,0.013,0.0132,0.0134,0.0137,0.0138,0.014,0.0141,0.0144,0.0147,0.0147,0.0153,0.0145,0.0157,0.0159,0.0161,0.0164,0.0159,0.0161,0.014,0.014,0.014,0,0,0.0113,0.0117,0.012,0.0127,0.0129,0.0137,0.0132,0.0137,0.0145,0.0138,0.015,0.0148,0.0147,0.0155,0.0158,0.0154,0.0161,0.0161,0.0163,0.0165,0.016,0.0162,0.0164,0.0141,0.0141,0.0141,0,0,0.0119,0.0122,0.0129,0.0133,0.0139,0.0142,0.0144,0.0148,0.0152,0.0161,0.0159,0.0164,0.0166,0.0171,0.0172,0.0184,0.0171,0.0181,0.0197,0.0192,0.0194,0.0195,0.0183,0.0184,0.0183,0.0183,0.0183,0,0.0121,0.013,0.0131,0.0139,0.0147,0.0146,0.0156,0.016,0.0166,0.0174,0.0167,0.0177,0.0175,0.019,0.0193,0.019,0.018,0.019,0.0195,0.0196,0.0197,0.0185,0.0185,0.0184,0.0184,0.0184,0.0184,0,0.0131,0.014,0.0145,0.0157,0.0165,0.0173,0.018,0.0188,0.0191,0.0196,0.0209,0.0205,0.0212,0.021,0.0206,0.0215,0.0203,0.0198,0.0191,0.0201,0.0187,0.0187,0.0186,0.0185,0.0185,0.0185,0,0,0.0137,0.015,0.0153,0.0164,0.0176,0.0185,0.0201,0.0217,0.0233,0.0233,0.0252,0.0251,0.0247,0.0248,0.0242,0.0237,0.0234,0.0221,0.022,0.0212,0.0217,0.0214,0.0213,0.0229,0.0229,0.0229,0.0203,0,0.0147,0.0164,0.0171,0.0194,0.0204,0.0214,0.0232,0.0247,0.0256,0.0273,0.027,0.0283,0.0262,0.0268,0.0259,0.0244,0.0234,0.0241,0.0206,0.0205,0.0203,0.0213,0.0229,0.0203,0.0202,0.0202,0.0202,0,0.0157,0.0169,0.0188,0.0217,0.0223,0.0239,0.0272,0.0289,0.031,0.0316,0.0323,0.032,0.032,0.0298,0.0271,0.0276,0.0247,0.0229,0.0228,0.0217,0.0201,0.019,0.0201,0.0201,0.0201,0.0201,0.0201,0,0.0161,0.0185,0.0203,0.0211,0.0239,0.0257,0.0278,0.0303,0.0327,0.0347,0.0363,0.0355,0.0358,0.0323,0.0285,0.0277,0.025,0.0236,0.0204,0.0203,0.0202,0.0201,0.0213,0.0213,0.0213,0.0213,0.0213,0,0.017,0.0186,0.0207,0.0217,0.0251,0.0269,0.0309,0.0327,0.036,0.0395,0.0387,0.0405,0.0364,0.0345,0.0298,0.0253,0.0259,0.021,0.02,0.0212,0.0212,0.0201,0.02,0.0212,0.0212,0.0212,0.0212,0,0.0171,0.0182,0.0207,0.0238,0.0252,0.0278,0.0333,0.0364,0.0389,0.0434,0.0444,0.0446,0.0424,0.0379,0.0327,0.0277,0.0231,0.0211,0.0229,0.0221,0.018,0.0181,0.0171,0.0171,0.0171,0.0171,0.0171,0,0.0173,0.0184,0.022,0.0241,0.0258,0.03,0.0334,0.0374,0.041,0.0459,0.0482,0.048,0.0472,0.0396,0.034,0.0256,0.0239,0.0202,0.0187,0.0186,0.0178,0.0179,0.0179,0.017,0.017,0.017,0.017,0,0.0181,0.0192,0.0213,0.0251,0.0288,0.0335,0.0386,0.0414,0.0467,0.0489,0.0515,0.0486,0.0465,0.0401,0.0341,0.0277,0.0219,0.0199,0.0198,0.0185,0.0185,0.0177,0.0178,0.0169,0.017,0.017,0.017,0,0.0189,0.0203,0.0229,0.0266,0.0311,0.0361,0.0388,0.0436,0.0473,0.0524,0.0528,0.0509,0.0497,0.0412,0.0357,0.0298,0.0273,0.0228,0.0226,0.0226,0.0248,0.0256,0.0258,0,0,0,0,0,0.0198,0.0214,0.0245,0.0287,0.0331,0.0359,0.0421,0.0449,0.0496,0.0515,0.0524,0.0506,0.0438,0.041,0.0352,0.0343,0.0257,0.0269,0.0203,0.0165,0.0166,0.0182,0,0,0,0,0,0,0.0204,0.023,0.0242,0.0297,0.0328,0.0384,0.0425,0.0458,0.0471,0.0503,0.0471,0.0466,0.0403,0.047,0.0342,0.0327,0.027,0.0244,0.0242,0.0165,0.0166,0.0166,0.0183,0,0,0,0,0]}]]